Home > Weather > Mesa > Past weeks

Flag for U.S.A. Weather for the Past 2 Weeks in Mesa, Arizona, U.S.A.

Now
75 °F

Passing clouds.


Feels Like: 76 °F
Forecast: 48 / 80 °F
Wind: No wind

Location: Williams Gateway Airport

Current Time: Feb 14, 2016 at 2:18:44 PM

Latest Report: Feb 14, 2016 at 1:47 PM


Visibility: 45 mi

Pressure: 29.96 "Hg

Humidity: 19%

Dew point: 30 °F

Location of MesaLocation

Historic Weather in Mesa — Graph

°F

Mesa Temperature Yesterday

Maximum temperature yesterday: 81 °F (at 2:47 PM)
Minimum temperature yesterday: 46 °F (at 7:47 AM)
Average temperature yesterday: 59 °F

High & Low Weather Summary for the Past Weeks

 TemperatureHumidityPressure
High82 °F (Feb 12, 3:50 PM)94% (Jan 31, 11:55 PM)30.39 "Hg (Jan 31, 11:55 PM)
Low28 °F (Feb 3, 6:47 AM)10% (Feb 8, 4:47 PM)29.61 "Hg (Jan 31, 9:50 PM)
Average51 °F45%30.13 "Hg
* Reported Jan 30 12:50 PM — Feb 14 12:47 PM, Mesa, Weather by CustomWeather, © 2016

Note: Actual official high and low records may vary slightly from our data, if they occured in-between our weather recording intervals... More about our weather records

Advertising

Mesa Weather History for the Previous 24 Hours

 ConditionsComfort  
Time TempWeatherWind HumidityBarometerVisibility
12:47 PM
Sun, Feb 14
72 °FPassing clouds.No wind23%29.99 "Hg45 mi
11:49 AM70 °FPassing clouds.No wind25%30.04 "Hg45 mi
10:47 AM64 °FPassing clouds.No wind30%30.05 "Hg45 mi
9:51 AM59 °FPassing clouds.No wind39%30.05 "Hg45 mi
8:47 AM54 °FPassing clouds.7 mph44%30.03 "Hg45 mi
7:48 AM46 °FPassing clouds.6 mph53%30.02 "Hg45 mi
6:47 AM46 °FPassing clouds.7 mph53%30.01 "Hg20 mi
5:50 AM48 °FClear.8 mph50%30.00 "Hg20 mi
4:50 AM46 °FClear.6 mph57%30.00 "Hg20 mi
4:35 AM45 °FClear.7 mph61%29.99 "Hg10 mi
4:15 AM46 °FClear.7 mph57%29.99 "Hg10 mi
3:55 AM48 °FClear.8 mph54%29.99 "Hg10 mi
3:15 AM50 °FClear.5 mph47%30.00 "Hg10 mi
2:55 AM52 °FClear.7 mph47%30.00 "Hg10 mi
2:35 AM50 °FClear.8 mph50%30.00 "Hg10 mi
2:15 AM50 °FClear.8 mph50%30.00 "Hg10 mi
1:55 AM52 °FClear.8 mph47%30.00 "Hg10 mi
1:35 AM52 °FClear.8 mph47%30.00 "Hg10 mi
1:15 AM52 °FClear.8 mph47%29.99 "Hg10 mi
12:35 AM52 °FClear.8 mph47%30.00 "Hg10 mi
12:15 AM52 °FClear.5 mph47%30.00 "Hg10 mi
11:47 PM
Sat, Feb 13
54 °FClear.6 mph44%30.00 "Hg20 mi
10:47 PM54 °FClear.6 mph41%30.00 "Hg20 mi
9:50 PM57 °FClear.6 mph36%30.00 "Hg20 mi
8:49 PM59 °FClear.6 mph34%29.99 "Hg20 mi
7:50 PM66 °FClear.No wind22%29.99 "Hg20 mi
6:55 PM72 °FPassing clouds.7 mph19%29.98 "Hg20 mi
5:54 PM79 °FScattered clouds.5 mph13%29.97 "Hg45 mi
3:47 PM81 °FPassing clouds.7 mph13%29.98 "Hg45 mi
2:47 PM81 °FPassing clouds.6 mph15%29.99 "Hg45 mi
Weather by CustomWeather, © 2016

See weather overviewHow to use our weather pages